Regional Weather Roundup
Issued by NWS Little Rock, AR

Home | Current Version | Previous Version | Text Only | Print | Product List | Glossary On
Versions: 1 2 3 4 5 6 7 8 9 10 11 12 13 14 15 16 17 18 19 20 21 22 23 24 25 26 27 28 29 30 31 32
000
ASUS44 KLZK 290205
RWRLZK

WEATHER ROUNDUP FOR ARKANSAS
NATIONAL WEATHER SERVICE LITTLE ROCK AR
900 PM CDT SUN MAY 28 2017

NOTE: "FAIR" INDICATES FEW OR NO CLOUDS BELOW 12,000 FEET WITH NO
SIGNIFICANT WEATHER AND/OR OBSTRUCTIONS TO VISIBILITY.

ARZ001-003-010-029-290300-
NORTHWEST ARKANSAS

CITY           SKY/WX    TMP DP  RH WIND       PRES   REMARKS
FAYETTEVILLE   CLEAR     65  60  84 CALM      30.00R
FORT SMITH     CLOUDY    74  57  55 N6        29.95R
HARRISON       CLOUDY    64  58  80 CALM      29.99S
BENTONVILLE    CLEAR     70  55  60 CALM      30.00R
ROGERS         CLEAR     68  58  70 SE7       30.01R
SILOAM SPGS    CLEAR     64  55  72 S6        30.00R
HIGHFILL       CLEAR     69  58  67 S6        30.00
SPRINGDALE     CLEAR     70  55  60 CALM      30.02R
$$

ARZ004-005-016-290300-
NORTH CENTRAL ARKANSAS

CITY           SKY/WX    TMP DP  RH WIND       PRES   REMARKS
BATESVILLE     CLOUDY    72  61  68 CALM      29.93S
FLIPPIN        CLOUDY    70  55  60 W3        29.94S
MTN HOME       CLOUDY    64  59  83 CALM      29.96S
$$

ARZ040-041-290300-
WEST CENTRAL ARKANSAS

CITY           SKY/WX    TMP DP  RH WIND       PRES   REMARKS
MENA           CLOUDY    73  70  88 CALM      29.97R
MOUNT IDA      CLOUDY    71  70  96 CALM      29.92S
$$

ARZ009-017-025-026-028-290300-
NORTHEAST ARKANSAS

CITY           SKY/WX    TMP DP  RH WIND       PRES   REMARKS
JONESBORO      CLOUDY    71  66  84 CALM      29.91R
NEWPORT        CLOUDY    74  67  78 NW3       29.92F
WALNUT RIDGE   PTCLDY    73  64  73 NW5       29.92S
BLYTHEVILLE    MOCLDY    73  69  87 SW3       29.92R
$$

ARZ022-023-033-042-044-290300-
CENTRAL ARKANSAS

CITY           SKY/WX    TMP DP  RH WIND       PRES   REMARKS
LITTLE ROCK    CLOUDY    73  71  93 CALM      29.92R
N LITTLE ROCK    N/A     73  70  90 CALM      29.92R
JACKSONVILLE   CLOUDY    74  73  97 CALM      29.92R
CONWAY           N/A     75  72  88 CALM      29.91R
SEARCY         CLOUDY    74  69  85 CALM      29.94S
HOT SPRINGS    CLOUDY    73  71  93 CALM      29.92S
RUSSELLVILLE   CLOUDY    74  62  66 N3        29.93R
CLINTON        FAIR      68  64  88 CALM      29.94R
$$

ARZ036-290300-
EAST ARKANSAS

CITY           SKY/WX    TMP DP  RH WIND       PRES   REMARKS
WEST MEMPHIS   MOCLDY    72  71  97 CALM      29.91F
$$

ARZ050-053-066-070-073-290300-
SOUTHWEST ARKANSAS

CITY           SKY/WX    TMP DP  RH WIND       PRES   REMARKS
ARKADELPHIA    CLOUDY    74  71  91 CALM      29.92S
CAMDEN         CLOUDY    72  68  88 NW7       29.92S
TEXARKANA      CLOUDY    71  71 100 CALM      29.91F
EL DORADO      CLOUDY    73  69  87 NW9       29.91R FOG
DE QUEEN       CLOUDY    71  71 100 CALM      29.91S
$$

ARZ056-057-069-290300-
SOUTHEAST ARKANSAS

CITY           SKY/WX    TMP DP  RH WIND       PRES   REMARKS
PINE BLUFF     CLOUDY    76  71  85 S3        29.92S
STUTTGART      CLOUDY    75  63  64 N3        29.93R
MONTICELLO     CLOUDY    75  71  87 CALM      29.93R

$$






USA.gov is the U.S. government's official web portal to all federal, state and local government web resources and services.